Regional Weather Roundup
Issued by NWS Jackson, KY

Home | Current Version | Previous Version | Text Only | Print | Product List | Glossary On
Versions: 1 2 3 4 5 6 7 8 9 10 11 12 13 14 15 16 17 18 19 20 21 22 23 24 25 26 27 28 29 30 31 32 33 34 35 36 37 38 39 40 41 42 43 44 45 46 47 48 49 50
000
ASUS43 KJKL 261210
RWRJKL

EAST KENTUCKY HOURLY WEATHER ROUNDUP
NATIONAL WEATHER SERVICE JACKSON KY
800 AM EDT SAT MAY 26 2018

NOTE: "FAIR" INDICATES FEW OR NO CLOUDS BELOW 12,000 FEET WITH
NO SIGNIFICANT WEATHER AND/OR OBSTRUCTIONS TO VISIBILITY.

* THESE REPORTS ARE NOT UNDER NWS QUALITY CONTROL AND MAY NOT
  REPORT WEATHER SUCH AS PRECIPITATION AND FOG.

KYZ079-080-083-085-087-088-110-112-115-119-120-261300
...EASTERN KENTUCKY...

CITY           SKY/WX    TMP DP  RH WIND       PRES   REMARKS
JACKSON          N/A     69  66  90 CALM      29.95R
6HR MIN TEMP:  68; 6HR MAX TEMP:  72; 6HR PCP:  0.08;

LONDON         CLOUDY    70  66  87 S3        29.96R
6HR MIN TEMP:  66; 6HR MAX TEMP:  70;

SOMERSET*      CLOUDY    68  68 100 MISG      29.96R
MONTICELLO*    PTSUNNY   70  67  90 NE8       29.97R
6HR MIN TEMP:  65; 6HR MAX TEMP:  70;

WILLIAMSBURG*    N/A     66  66 100 CALM      29.97R
MIDDLESBORO*   CLOUDY    69  68  98 CALM      29.97S
6HR MIN TEMP:  67; 6HR MAX TEMP:  70;

HARLAN APT*    CLOUDY    66  66  99 CALM      29.99R
PIKE CO APT*     N/A     68  68 100 CALM      29.96R
BIG SANDY APT* PTSUNNY   70  68  92 SW3       29.94R
6HR MIN TEMP:  68; 6HR MAX TEMP:  70;

MOREHEAD APT*    N/A     72  66  83 SW7G14    29.94R
ASHLAND*         N/A     69  68  96 CALM      29.90R
$$

KYZ035-036-041-042-044-050-067-078-099-261300
...CENTRAL KENTUCKY...

CITY           SKY/WX    TMP DP  RH WIND       PRES   REMARKS
MT STERLING*     N/A     68  66  94 SW3       29.95R
FLEMING/MASON* CLOUDY    69  67  92 CALM      29.92R
DANVILLE*        N/A     70  64  83 SW3       29.95R
LEXINGTON        N/A     72  67  84 S7        29.92R
6HR MIN TEMP:  68; 6HR MAX TEMP:  72;

FRANKFORT        N/A     71  65  81 S7        29.90R
6HR MIN TEMP:  67; 6HR MAX TEMP:  71;

LOUISVILLE     PTSUNNY   74  67  78 S6        29.88R
6HR MIN TEMP:  71; 6HR MAX TEMP:  76;

LEBANON*       PTSUNNY   70  68  94 S8        29.93R
GLASGOW*         N/A     71  65  83 S6        29.93S
BOWLING GREEN    N/A     73  69  87 S5        29.92R
6HR MIN TEMP:  70; 6HR MAX TEMP:  74;

$$

KYZ091>093-OHZ055-061-077-WVZ005-015-034-035-042-261300
...SOUTHERN OHIO/WEST VIRGINIA...

CITY           SKY/WX    TMP DP  RH WIND       PRES   REMARKS
COVINGTON      PTSUNNY   71  63  75 SW7       29.88R
COLUMBUS       PTSUNNY   70  61  73 S3        29.87R
DAYTON         PTSUNNY   71  63  75 S9        29.87S
WILMINGTON     PTSUNNY   69  66  90 SW3       29.88R
HUNTINGTON       N/A     71  65  81 S8        29.90R
CHARLESTON       N/A     71  68  90 CALM      29.91R
PINEVILLE*       N/A     65  64  96 MISG      30.02S
BECKLEY          N/A     67  60  78 S5        30.00S
BLUEFIELD      PTSUNNY   66  61  84 W3        30.03R
LOGAN CO APT*    N/A     70  66  88 CALM      29.96R
$$

VAZ002-007-008-TNZ017-027-036-066-071-261300
...SOUTHWEST VIRGINIA/EAST TENNESSEE...

CITY           SKY/WX    TMP DP  RH WIND       PRES   REMARKS
WISE*          CLOUDY    66  66 100 SW5       30.04R
JONESVILLE*    HVY RAIN  66  66 100 CALM      30.01R VSB 3/4
ABINGDON*      CLOUDY    68  66  94 CALM      30.01S
BRISTOL        LGT RAIN  67  67 100 CALM      30.00R FOG
MORRISTOWN*    PTSUNNY   68  68 100 CALM      29.98R
SEVIERVILLE*   PTSUNNY   70  68  94 CALM      29.97S
KNOXVILLE      PTSUNNY   73  68  84 W5        29.96R
LAFOLLETTE*    PTSUNNY   70  68  94 CALM      30.00R
OAK RIDGE      LGT RAIN  72  69  90 W3        29.97R
CROSSVILLE     PTSUNNY   68  66  93 CALM      30.00R
NASHVILLE      PTSUNNY   70  66  87 S6        29.93R
$$

...KEY TO REMARKS...
VSB - VISIBILITY IN MILES
WCI - WIND CHILL INDEX
HX  - HEAT INDEX

$$



USA.gov is the U.S. government's official web portal to all federal, state and local government web resources and services.